[[[{"header":{"parameterUnit":"kt","parameterCategory":2,"dx":1,"dy":1,"la1":30.253999710083008,"la2":30.299108505249023,"lo1":-89.0895004272461,"lo2":-89.04439544677734,"nx":28,"ny":28,"refTime":"2022-10-19T21:00:00:Z","depth":0,"parameterNumber":1,"parameterNumberName":"U-component_of_WINDS"},"data":[1.3133,1.3094,1.3082,1.3031,1.3011,1.2974,1.2956,1.2932,1.2909,1.2862,1.2832,1.2814,1.2784,1.2744,1.271,1.2702,1.2688,1.2686,1.2676,1.2703,1.2706,1.2709,1.2718,1.2683,1.2683,1.2651,1.265,1.265,1.3159,1.3139,1.3108,1.307,1.3043,1.3039,1.3007,1.2985,1.2951,1.2921,1.2891,1.2847,1.281,1.278,1.2741,1.2722,1.2716,1.2712,1.2713,1.2708,1.2737,1.2747,1.2718,1.2718,1.2718,1.2718,1.2718,1.2718,1.3202,1.3179,1.3148,1.3114,1.309,1.3064,1.3039,1.3017,1.2985,1.2944,1.2933,1.2893,1.2859,1.2804,1.2781,1.2749,1.275,1.274,1.2738,1.2736,1.2736,1.2787,1.2741,1.2741,1.2741,1.2741,1.2741,0,1.323,1.3221,1.3189,1.3155,1.3129,1.3099,1.307,1.3054,1.3026,1.3,1.2962,1.2937,1.2887,1.2847,1.2807,1.2784,1.2774,1.277,1.2764,1.2769,1.2781,1.2775,1.2823,1.2771,1.2771,1.2771,1.2772,1.2772,1.3273,1.3247,1.3206,1.3186,1.3166,1.3133,1.311,1.3088,1.3064,1.3023,1.3002,1.2963,1.293,1.2868,1.2838,1.2799,1.2793,1.2776,1.2787,1.2795,1.2793,1.2795,1.2793,1.2774,1.2773,1.2773,1.2773,0,1.3299,1.3276,1.323,1.3191,1.3181,1.3154,1.312,1.3094,1.3073,1.3035,1.3024,1.2991,1.2952,1.2925,1.2873,1.286,1.2815,1.281,1.2828,1.2825,1.2807,1.2809,1.2751,1.2743,1.2778,1.2778,1.2777,0,1.3327,1.3292,1.326,1.3234,1.3194,1.3172,1.3133,1.3112,1.3081,1.305,1.3035,1.3006,1.2976,1.2943,1.2923,1.288,1.287,1.2857,1.2852,1.2858,1.286,1.2843,1.2845,1.2841,1.2842,1.2842,1.2842,0,1.3369,1.331,1.3268,1.325,1.3203,1.3184,1.3163,1.3128,1.3104,1.3069,1.3053,1.3013,1.2991,1.296,1.2935,1.2944,1.2882,1.2889,1.2869,1.287,1.2855,1.2856,1.2813,1.2842,1.2843,1.2843,1.2843,0,1.3387,1.3354,1.3296,1.3257,1.3242,1.3213,1.3173,1.3142,1.3105,1.3091,1.3063,1.3048,1.3008,1.3017,1.2961,1.298,1.2959,1.2943,1.2941,1.2935,1.2945,1.2925,1.2887,1.2882,1.2931,1.2932,1.2933,0,1.3443,1.3377,1.3357,1.3301,1.3267,1.3253,1.3221,1.3188,1.3167,1.3134,1.3109,1.307,1.3071,1.3054,1.3031,1.3003,1.2978,1.3005,1.2956,1.2955,1.2967,1.2932,1.2933,1.2899,1.2942,1.2941,1.294,0,1.3483,1.3426,1.3417,1.3396,1.335,1.332,1.3282,1.3239,1.3218,1.3182,1.3149,1.3093,1.3092,1.3064,1.3046,1.3023,1.2994,1.3023,1.3022,1.302,1.2943,1.2945,1.2939,1.2988,1.2987,1.2986,1.2947,0,1.3517,1.3479,1.3455,1.3406,1.3379,1.3341,1.3312,1.3287,1.3274,1.3252,1.3202,1.3164,1.3117,1.3103,1.3088,1.3043,1.3046,1.3043,1.3048,1.3026,1.3012,1.3007,1.3072,1.3072,1.3072,1.3071,0,0,1.3576,1.3521,1.3499,1.3461,1.3436,1.342,1.3383,1.3356,1.3302,1.3285,1.3288,1.3202,1.3171,1.3113,1.3103,1.3084,1.3073,1.308,1.3037,1.3033,1.3029,1.3016,1.301,1.3071,1.3071,1.3071,1.3071,0,1.3582,1.3554,1.3517,1.3489,1.3447,1.3424,1.3416,1.337,1.3353,1.3303,1.3288,1.3254,1.3184,1.3154,1.3129,1.3088,1.3077,1.3075,1.3064,1.3038,1.3034,1.3031,1.3016,1.3012,1.3071,1.3071,1.3071,0,1.3616,1.3583,1.3562,1.3505,1.3476,1.3439,1.3439,1.3399,1.3371,1.3351,1.3302,1.3276,1.3231,1.318,1.3155,1.3156,1.3083,1.3099,1.3098,1.3094,1.3067,1.3062,1.3058,1.311,1.311,1.311,0,0,1.3625,1.3589,1.3545,1.3503,1.3487,1.3452,1.3428,1.3412,1.3374,1.3358,1.3325,1.3286,1.3246,1.3219,1.3179,1.3126,1.3114,1.3105,1.3103,1.3102,1.3097,1.3069,1.3065,1.3111,1.3111,1.3111,0,0,1.3628,1.3576,1.357,1.3518,1.3483,1.3435,1.341,1.34,1.3361,1.3362,1.333,1.3318,1.3269,1.3243,1.3261,1.318,1.3186,1.3181,1.3198,1.3195,1.3193,1.32,1.3253,0,0,0,0,0,1.3618,1.3583,1.3578,1.3565,1.3489,1.3438,1.3428,1.3403,1.3409,1.339,1.336,1.335,1.3247,1.3262,1.3249,1.3228,1.3125,1.3122,1.312,1.313,1.3128,1.3125,0,0,0,0,0,0,1.3613,1.3597,1.3579,1.353,1.3513,1.3439,1.3444,1.3436,1.341,1.3409,1.3356,1.3348,1.3324,1.3267,1.3255,1.3236,1.3257,1.3124,1.3122,1.312,1.3129,1.3127,1.3125,0,0,0,0,0,1.3609,1.3596,1.3482,1.353,1.3515,1.3473,1.3445,1.3438,1.3418,1.3371,1.3362,1.3401,1.3324,1.3312,1.326,1.3243,1.3265,1.326,1.3122,1.3121,1.3119,1.3128,0,0,0,0,0,0,1.3605,1.3588,1.3478,1.3472,1.3541,1.3476,1.3466,1.344,1.338,1.3372,1.3414,1.3414,1.3324,1.3314,1.3305,1.3246,1.3271,1.3267,1.3264,1.3121,1.312,1.3119,0,0,0,0,0,0,1.3595,1.3584,1.3475,1.3491,1.3487,1.348,1.347,1.3421,1.3379,1.3426,1.3425,1.3414,1.3336,1.3316,1.3309,1.3233,1.3277,1.3272,1.3269,1.3267,1.312,1.3119,0,0,0,0,0,0,1.359,1.358,1.3492,1.3489,1.3485,1.3421,1.3436,1.3359,1.3396,1.3429,1.3398,1.3399,1.3338,1.333,1.3311,1.3239,1.3235,1.3276,1.3273,1.3271,1.327,0,0,0,0,0,0,0,1.3586,1.3657,1.3511,1.3487,1.3484,1.3421,1.3419,1.3418,1.3396,1.3397,1.3398,1.3398,1.3301,1.3296,1.3292,1.3244,0,0,1.3277,1.3275,0,0,0,0,0,0,0,0,1.3661,1.3658,1.3511,1.351,1.3509,1.3421,1.3419,1.3418,1.3396,1.3397,1.3397,1.3398,1.33,1.3296,1.3292,0,0,0,0,0,0,0,0,0,0,0,0,0,0,0,1.3511,1.351,0,1.3421,1.342,1.3418,1.3396,1.3397,1.3397,1.3398,1.3299,1.3296,1.3292,0,0,0,0,0,0,0,0,0,0,0,0,0,0,0,0,0,0,0,0,0,0,0,0,0,0,0,0,0,0,0,0,0,0,0,0,0,0,0,0,0,0,0,0,0,0,0,0,0,0,0,0,0,0,0,0,0,0,0,0,0,0,0,0,0,0,0,0,0]}],[{"header":{"parameterUnit":"kt","parameterCategory":2,"dx":1,"dy":1,"la1":30.253999710083008,"la2":30.299108505249023,"lo1":-89.0895004272461,"lo2":-89.04439544677734,"nx":28,"ny":28,"refTime":"2022-10-19T21:00:00:Z","depth":0,"parameterNumber":2,"parameterNumberName":"V-component_of_WINDS"},"data":[-7.5329,-7.5487,-7.5511,-7.5701,-7.5755,-7.5887,-7.5942,-7.6014,-7.6078,-7.6237,-7.6331,-7.6371,-7.6442,-7.6559,-7.6661,-7.6675,-7.6714,-7.6751,-7.6761,-7.6581,-7.6558,-7.6535,-7.6499,-7.676,-7.6761,-7.6941,-7.6942,-7.6944,-7.5187,-7.5243,-7.5352,-7.5474,-7.5567,-7.5546,-7.5641,-7.5718,-7.5837,-7.5918,-7.6014,-7.6155,-7.6269,-7.633,-7.6443,-7.6512,-7.6507,-7.654,-7.6533,-7.6543,-7.6354,-7.6315,-7.6542,-7.6542,-7.6542,-7.6542,-7.6542,-7.6542,-7.4933,-7.5028,-7.5117,-7.5236,-7.5305,-7.5386,-7.5479,-7.5528,-7.5634,-7.5758,-7.5768,-7.5902,-7.5986,-7.6135,-7.6191,-7.6294,-7.6261,-7.6304,-7.6314,-7.6323,-7.6328,-7.6054,-7.6315,-7.6315,-7.6314,-7.6314,-7.6313,0,-7.4754,-7.4769,-7.4878,-7.4992,-7.5081,-7.5173,-7.526,-7.5319,-7.5359,-7.5445,-7.557,-7.5647,-7.5796,-7.5915,-7.6027,-7.6077,-7.6062,-7.6065,-7.6094,-7.6087,-7.6066,-7.6073,-7.5757,-7.6057,-7.6055,-7.6053,-7.6052,-7.6051,-7.4495,-7.4606,-7.4714,-7.4785,-7.4841,-7.4958,-7.5032,-7.506,-7.5136,-7.5248,-7.5329,-7.5451,-7.5549,-7.5745,-7.5798,-7.591,-7.5902,-7.6013,-7.5919,-7.5908,-7.5897,-7.5888,-7.5896,-7.6029,-7.6032,-7.6034,-7.6036,0,-7.4346,-7.4389,-7.4568,-7.4665,-7.4693,-7.4805,-7.4886,-7.4982,-7.502,-7.5156,-7.5189,-7.5247,-7.5369,-7.5406,-7.5555,-7.5569,-7.5746,-7.5739,-7.5714,-7.5713,-7.5811,-7.5799,-7.6137,-7.618,-7.5915,-7.5918,-7.592,0,-7.4139,-7.4284,-7.4339,-7.4441,-7.4601,-7.4626,-7.4782,-7.483,-7.4907,-7.5015,-7.5006,-7.5107,-7.5139,-7.5244,-7.5267,-7.5419,-7.5449,-7.5467,-7.547,-7.5465,-7.5462,-7.5502,-7.5487,-7.5481,-7.5479,-7.5478,-7.5477,0,-7.3897,-7.4099,-7.4266,-7.4318,-7.4437,-7.4514,-7.4567,-7.4654,-7.4727,-7.4828,-7.4874,-7.4991,-7.5053,-7.5141,-7.5168,-7.5102,-7.5357,-7.5273,-7.5375,-7.5374,-7.5427,-7.5422,-7.5715,-7.5474,-7.5474,-7.5473,-7.5473,0,-7.3736,-7.3842,-7.4079,-7.4176,-7.4228,-7.4339,-7.4454,-7.4559,-7.4651,-7.4673,-7.4753,-7.4751,-7.4893,-7.4804,-7.4997,-7.4902,-7.4963,-7.4995,-7.5003,-7.5014,-7.4913,-7.5066,-7.5347,-7.5374,-7.5027,-7.5023,-7.502,0,-7.3443,-7.3697,-7.3721,-7.3947,-7.4068,-7.4049,-7.4172,-7.4256,-7.4296,-7.4403,-7.4446,-7.4568,-7.4511,-7.4554,-7.4646,-7.4693,-7.4817,-7.4679,-7.4824,-7.4828,-7.4794,-7.5054,-7.5084,-7.5282,-7.4974,-7.4978,-7.4982,0,-7.3221,-7.3369,-7.3408,-7.3467,-7.3587,-7.369,-7.3833,-7.396,-7.4029,-7.4128,-7.4244,-7.442,-7.4381,-7.4454,-7.4466,-7.4559,-7.4734,-7.4506,-7.4508,-7.454,-7.4956,-7.4982,-7.5016,-7.472,-7.4726,-7.4731,-7.4945,0,-7.2957,-7.3093,-7.3202,-7.334,-7.3427,-7.3573,-7.3616,-7.37,-7.3702,-7.3742,-7.3917,-7.3999,-7.4128,-7.4179,-7.4184,-7.4387,-7.4357,-7.4317,-7.4231,-7.4403,-7.4474,-7.4504,-7.4121,-7.4119,-7.4117,-7.4115,0,0,-7.2663,-7.2858,-7.2883,-7.3025,-7.3099,-7.3079,-7.323,-7.33,-7.3443,-7.3492,-7.3446,-7.3705,-7.3774,-7.3982,-7.4039,-7.4094,-7.4132,-7.4072,-7.4322,-7.4345,-7.4366,-7.4442,-7.4472,-7.4112,-7.4111,-7.411,-7.411,0,-7.2575,-7.2651,-7.2803,-7.2877,-7.2988,-7.3024,-7.306,-7.3166,-7.3198,-7.3375,-7.3353,-7.3464,-7.3674,-7.3747,-7.3811,-7.4049,-7.4024,-7.4086,-7.4197,-7.4302,-7.4327,-7.435,-7.4429,-7.4458,-7.4105,-7.4106,-7.4106,0,-7.236,-7.244,-7.252,-7.2692,-7.2765,-7.2893,-7.2814,-7.2955,-7.3048,-7.3019,-7.3193,-7.3245,-7.3348,-7.3542,-7.3631,-7.3591,-7.3923,-7.3829,-7.3842,-7.3852,-7.3955,-7.3986,-7.4013,-7.3653,-7.3651,-7.3649,0,0,-7.2278,-7.2406,-7.2501,-7.2677,-7.2724,-7.2781,-7.2854,-7.2865,-7.296,-7.2998,-7.3064,-7.3155,-7.3276,-7.3355,-7.3472,-7.3681,-7.3701,-7.3772,-7.3793,-7.381,-7.3829,-7.3937,-7.3967,-7.3643,-7.3642,-7.3642,0,0,-7.2238,-7.2355,-7.2342,-7.2553,-7.2645,-7.2748,-7.2853,-7.2838,-7.2948,-7.2936,-7.2959,-7.2985,-7.3168,-7.322,-7.3126,-7.3441,-7.3355,-7.3379,-7.34,-7.3428,-7.3449,-7.343,-7.3054,0,0,0,0,0,-7.2171,-7.2341,-7.2327,-7.2369,-7.2589,-7.2756,-7.2784,-7.2808,-7.2745,-7.2827,-7.2879,-7.2851,-7.3173,-7.309,-7.313,-7.3234,-7.3557,-7.3572,-7.3586,-7.3663,-7.3692,-7.3715,0,0,0,0,0,0,-7.2188,-7.224,-7.2323,-7.2434,-7.2483,-7.275,-7.2649,-7.266,-7.2737,-7.2729,-7.2842,-7.2855,-7.2877,-7.3071,-7.3107,-7.3205,-7.3042,-7.3563,-7.3576,-7.3587,-7.3673,-7.3696,-7.3716,0,0,0,0,0,-7.2201,-7.2243,-7.2589,-7.2431,-7.2474,-7.2547,-7.2643,-7.2652,-7.2711,-7.2794,-7.2805,-7.2723,-7.2879,-7.2911,-7.3093,-7.3188,-7.3018,-7.3031,-7.3571,-7.3581,-7.3591,-7.3684,0,0,0,0,0,0,-7.2211,-7.2251,-7.2598,-7.2612,-7.237,-7.2532,-7.2558,-7.2644,-7.2771,-7.2784,-7.2674,-7.2667,-7.2883,-7.2907,-7.2932,-7.3181,-7.2998,-7.3011,-7.302,-7.3579,-7.3587,-7.3594,0,0,0,0,0,0,-7.2229,-7.2263,-7.2606,-7.2527,-7.2532,-7.2518,-7.2542,-7.2701,-7.2773,-7.2645,-7.2642,-7.2669,-7.2845,-7.2905,-7.2924,-7.3171,-7.2982,-7.2995,-7.3004,-7.301,-7.3586,-7.3592,0,0,0,0,0,0,-7.2244,-7.2273,-7.2523,-7.2527,-7.2531,-7.2689,-7.2659,-7.2882,-7.2707,-7.2639,-7.2692,-7.2685,-7.2844,-7.2864,-7.2919,-7.3158,-7.3167,-7.2983,-7.2991,-7.2998,-7.3002,0,0,0,0,0,0,0,-7.2256,-7.2054,-7.2516,-7.2528,-7.2531,-7.274,-7.2744,-7.2748,-7.2706,-7.2699,-7.2693,-7.2688,-7.2908,-7.2923,-7.2937,-7.3147,0,0,-7.2981,-7.2988,0,0,0,0,0,0,0,0,-7.2042,-7.2051,-7.2517,-7.252,-7.2523,-7.2741,-7.2744,-7.2747,-7.2704,-7.27,-7.2695,-7.269,-7.2912,-7.2924,-7.2935,0,0,0,0,0,0,0,0,0,0,0,0,0,0,0,-7.2517,-7.252,0,-7.2741,-7.2744,-7.2747,-7.2704,-7.27,-7.2696,-7.2692,-7.2915,-7.2925,-7.2934,0,0,0,0,0,0,0,0,0,0,0,0,0,0,0,0,0,0,0,0,0,0,0,0,0,0,0,0,0,0,0,0,0,0,0,0,0,0,0,0,0,0,0,0,0,0,0,0,0,0,0,0,0,0,0,0,0,0,0,0,0,0,0,0,0,0,0,0,0]}]]]